Time,TemperatureF,DewpointF,PressureIn,WindDirection,WindDirectionDegrees,WindSpeedMPH,WindSpeedGustMPH,Humidity,HourlyPrecipIn,Conditions,Clouds,dailyrainin,SolarRadiationWatts/m^2,SoftwareType,DateUTC
2013-09-24 00:00:00,45.5,44.4,30.12,South,171,1.0,4.0,96,0.00,,,0.00,0.0,meteohub,2013-09-24 04:00:00,
2013-09-24 00:01:00,45.5,44.4,30.12,South,171,1.0,4.0,96,0.00,,,0.00,0.0,meteohub,2013-09-24 04:01:00,
2013-09-24 00:06:00,45.7,44.6,30.12,South,184,3.0,4.0,96,0.00,,,0.00,0.0,meteohub,2013-09-24 04:06:00,
2013-09-24 00:11:00,45.7,44.6,30.12,SSE,159,1.0,4.0,96,0.00,,,0.00,0.0,meteohub,2013-09-24 04:11:00,
2013-09-24 00:16:00,45.9,44.8,30.12,South,175,1.0,4.0,96,0.00,,,0.00,0.0,meteohub,2013-09-24 04:16:00,
2013-09-24 00:21:00,46.0,45.0,30.12,SSE,156,3.0,5.0,96,0.00,,,0.00,0.0,meteohub,2013-09-24 04:21:00,
2013-09-24 00:26:00,46.0,44.6,30.12,SE,136,1.0,5.0,95,0.00,,,0.00,0.0,meteohub,2013-09-24 04:26:00,
2013-09-24 00:31:00,46.0,44.6,30.12,SE,126,1.0,5.0,95,0.00,,,0.00,0.0,meteohub,2013-09-24 04:31:00,
2013-09-24 00:36:00,46.0,44.6,30.12,South,176,1.0,4.0,95,0.00,,,0.00,0.0,meteohub,2013-09-24 04:36:00,
2013-09-24 00:41:00,46.0,44.6,30.12,SSW,200,2.0,5.0,95,0.00,,,0.00,0.0,meteohub,2013-09-24 04:41:00,
2013-09-24 00:46:00,46.0,44.6,30.12,South,180,1.0,5.0,95,0.00,,,0.00,0.0,meteohub,2013-09-24 04:46:00,
2013-09-24 00:52:00,46.0,44.6,30.11,South,175,1.0,5.0,95,0.00,,,0.00,0.0,meteohub,2013-09-24 04:52:00,
2013-09-24 00:57:00,46.2,44.8,30.12,South,169,3.0,4.0,95,0.00,,,0.00,0.0,meteohub,2013-09-24 04:57:00,
2013-09-24 01:02:00,46.4,45.0,30.12,SSW,199,1.0,5.0,95,0.00,,,0.00,0.0,meteohub,2013-09-24 05:02:00,
2013-09-24 01:07:00,46.6,45.1,30.12,South,187,3.0,5.0,95,0.00,,,0.00,0.0,meteohub,2013-09-24 05:07:00,
2013-09-24 01:12:00,46.6,45.1,30.12,WSW,247,1.0,5.0,95,0.00,,,0.00,0.0,meteohub,2013-09-24 05:12:00,
2013-09-24 01:17:00,46.6,45.1,30.12,SSW,194,1.0,5.0,95,0.00,,,0.00,0.0,meteohub,2013-09-24 05:17:00,
2013-09-24 01:22:00,46.6,45.0,30.12,South,175,1.0,4.0,94,0.00,,,0.00,0.0,meteohub,2013-09-24 05:22:00,
2013-09-24 01:27:00,46.2,44.8,30.12,SW,224,2.0,4.0,95,0.00,,,0.00,0.0,meteohub,2013-09-24 05:27:00,
2013-09-24 01:32:00,46.2,44.8,30.11,SW,236,2.0,4.0,95,0.00,,,0.00,0.0,meteohub,2013-09-24 05:32:00,
2013-09-24 01:37:00,46.0,44.4,30.11,SSW,212,2.0,4.0,94,0.00,,,0.00,0.0,meteohub,2013-09-24 05:37:00,
2013-09-24 01:42:00,45.9,44.4,30.12,SW,231,2.0,3.0,95,0.00,,,0.00,0.0,meteohub,2013-09-24 05:42:00,
2013-09-24 01:47:00,45.9,44.4,30.12,South,184,3.0,4.0,95,0.00,,,0.00,0.0,meteohub,2013-09-24 05:47:00,
2013-09-24 01:52:00,45.7,44.4,30.12,SW,229,1.0,4.0,95,0.00,,,0.00,0.0,meteohub,2013-09-24 05:52:00,
2013-09-24 01:57:00,45.3,44.1,30.12,SW,229,0.0,4.0,95,0.00,,,0.00,0.0,meteohub,2013-09-24 05:57:00,
2013-09-24 02:02:00,45.1,43.9,30.12,SW,229,1.0,3.0,95,0.00,,,0.00,0.0,meteohub,2013-09-24 06:02:00,
2013-09-24 02:07:00,45.0,43.7,30.12,SW,229,0.0,2.0,95,0.00,,,0.00,0.0,meteohub,2013-09-24 06:07:00,
2013-09-24 02:12:00,44.8,43.7,30.12,SW,229,2.0,2.0,96,0.00,,,0.00,0.0,meteohub,2013-09-24 06:12:00,
2013-09-24 02:17:00,44.8,43.7,30.12,SW,229,0.0,2.0,96,0.00,,,0.00,0.0,meteohub,2013-09-24 06:17:00,
2013-09-24 02:22:00,44.4,43.3,30.12,SW,229,0.0,2.0,96,0.00,,,0.00,0.0,meteohub,2013-09-24 06:22:00,
2013-09-24 02:27:00,44.2,43.2,30.12,SSW,209,1.0,2.0,96,0.00,,,0.00,0.0,meteohub,2013-09-24 06:27:00,
2013-09-24 02:32:00,44.2,43.2,30.12,SSW,209,1.0,3.0,96,0.00,,,0.00,0.0,meteohub,2013-09-24 06:32:00,
2013-09-24 02:37:00,44.1,43.0,30.12,SSE,161,1.0,3.0,96,0.00,,,0.00,0.0,meteohub,2013-09-24 06:37:00,
2013-09-24 02:42:00,43.9,42.8,30.12,South,186,0.0,3.0,96,0.00,,,0.00,0.0,meteohub,2013-09-24 06:42:00,
2013-09-24 02:47:00,43.9,43.2,30.12,South,187,2.0,3.0,97,0.00,,,0.00,0.0,meteohub,2013-09-24 06:47:00,
2013-09-24 02:52:00,43.9,42.8,30.12,South,186,0.0,2.0,96,0.00,,,0.00,0.0,meteohub,2013-09-24 06:52:00,
2013-09-24 02:57:00,43.7,42.6,30.12,South,186,1.0,2.0,96,0.00,,,0.00,0.0,meteohub,2013-09-24 06:57:00,
2013-09-24 03:02:00,43.7,43.0,30.12,South,186,1.0,2.0,97,0.00,,,0.00,0.0,meteohub,2013-09-24 07:02:00,
2013-09-24 03:07:00,43.5,42.8,30.12,South,186,0.0,2.0,97,0.00,,,0.00,0.0,meteohub,2013-09-24 07:07:00,
2013-09-24 03:12:00,43.3,42.3,30.12,South,186,0.0,2.0,96,0.00,,,0.00,0.0,meteohub,2013-09-24 07:12:00,
2013-09-24 03:17:00,43.2,42.1,30.12,South,186,1.0,2.0,96,0.00,,,0.00,0.0,meteohub,2013-09-24 07:17:00,
2013-09-24 03:22:00,43.2,42.1,30.12,South,186,0.0,2.0,96,0.00,,,0.00,0.0,meteohub,2013-09-24 07:22:00,
2013-09-24 03:27:00,43.2,42.4,30.12,South,186,0.0,2.0,97,0.00,,,0.00,0.0,meteohub,2013-09-24 07:27:00,
2013-09-24 03:32:00,43.0,42.3,30.12,South,186,0.0,2.0,97,0.00,,,0.00,0.0,meteohub,2013-09-24 07:32:00,
2013-09-24 03:37:00,42.8,42.1,30.12,South,186,1.0,2.0,97,0.00,,,0.00,0.0,meteohub,2013-09-24 07:37:00,
2013-09-24 03:42:00,42.6,41.9,30.12,South,186,0.0,2.0,97,0.00,,,0.00,0.0,meteohub,2013-09-24 07:42:00,
2013-09-24 03:47:00,42.6,41.9,30.12,South,186,1.0,2.0,97,0.00,,,0.00,0.0,meteohub,2013-09-24 07:47:00,
2013-09-24 03:52:00,42.4,41.7,30.12,South,186,1.0,2.0,97,0.00,,,0.00,0.0,meteohub,2013-09-24 07:52:00,
2013-09-24 03:57:00,42.3,41.5,30.11,South,186,1.0,2.0,97,0.00,,,0.00,0.0,meteohub,2013-09-24 07:57:00,
2013-09-24 04:02:00,42.1,41.4,30.11,South,186,0.0,2.0,97,0.00,,,0.00,0.0,meteohub,2013-09-24 08:02:00,
2013-09-24 04:07:00,41.9,41.2,30.11,South,186,0.0,2.0,97,0.00,,,0.00,0.0,meteohub,2013-09-24 08:07:00,
2013-09-24 04:12:00,41.7,41.0,30.11,South,186,0.0,2.0,97,0.00,,,0.00,0.0,meteohub,2013-09-24 08:12:00,
2013-09-24 04:17:00,41.7,41.0,30.11,South,186,0.0,2.0,97,0.00,,,0.00,0.0,meteohub,2013-09-24 08:17:00,
2013-09-24 04:22:00,41.5,40.8,30.11,South,186,0.0,1.0,97,0.00,,,0.00,0.0,meteohub,2013-09-24 08:22:00,
2013-09-24 04:27:00,41.5,40.8,30.11,South,186,0.0,1.0,97,0.00,,,0.00,0.0,meteohub,2013-09-24 08:27:00,
2013-09-24 04:32:00,41.5,40.8,30.11,South,186,0.0,1.0,97,0.00,,,0.00,0.0,meteohub,2013-09-24 08:32:00,
2013-09-24 04:37:00,41.5,40.8,30.12,South,186,0.0,2.0,97,0.00,,,0.00,0.0,meteohub,2013-09-24 08:37:00,
2013-09-24 04:42:00,41.5,40.8,30.12,South,186,0.0,2.0,97,0.00,,,0.00,0.0,meteohub,2013-09-24 08:42:00,
2013-09-24 04:47:00,41.5,40.8,30.11,South,186,0.0,2.0,97,0.00,,,0.00,0.0,meteohub,2013-09-24 08:47:00,
2013-09-24 04:52:00,41.4,40.6,30.12,South,186,0.0,1.0,97,0.00,,,0.00,0.0,meteohub,2013-09-24 08:52:00,
2013-09-24 04:57:00,41.2,40.5,30.12,South,186,1.0,1.0,97,0.00,,,0.00,0.0,meteohub,2013-09-24 08:57:00,
2013-09-24 05:02:00,41.2,40.5,30.12,South,186,0.0,1.0,97,0.00,,,0.00,0.0,meteohub,2013-09-24 09:02:00,
2013-09-24 05:07:00,41.0,40.3,30.12,South,186,0.0,1.0,97,0.00,,,0.00,0.0,meteohub,2013-09-24 09:07:00,
2013-09-24 05:12:00,40.8,40.1,30.12,South,186,0.0,1.0,97,0.00,,,0.00,0.0,meteohub,2013-09-24 09:12:00,
2013-09-24 05:17:00,40.6,39.9,30.12,South,186,0.0,2.0,97,0.00,,,0.00,0.0,meteohub,2013-09-24 09:17:00,
2013-09-24 05:22:00,40.6,39.9,30.12,South,186,0.0,2.0,97,0.00,,,0.00,0.0,meteohub,2013-09-24 09:22:00,
2013-09-24 05:27:00,40.8,40.1,30.12,South,186,1.0,2.0,97,0.00,,,0.00,0.0,meteohub,2013-09-24 09:27:00,
2013-09-24 05:32:00,40.8,40.3,30.12,South,186,0.0,2.0,98,0.00,,,0.00,0.0,meteohub,2013-09-24 09:32:00,
2013-09-24 05:37:00,40.8,40.3,30.12,South,186,0.0,2.0,98,0.00,,,0.00,0.0,meteohub,2013-09-24 09:37:00,
2013-09-24 05:42:00,40.8,40.3,30.12,South,186,0.0,1.0,98,0.00,,,0.00,0.0,meteohub,2013-09-24 09:42:00,
2013-09-24 05:47:00,40.8,40.3,30.12,South,186,0.0,1.0,98,0.00,,,0.00,0.0,meteohub,2013-09-24 09:47:00,
2013-09-24 05:52:00,40.6,40.1,30.12,South,186,0.0,1.0,98,0.00,,,0.00,0.0,meteohub,2013-09-24 09:52:00,
2013-09-24 05:57:00,40.6,40.1,30.13,South,186,0.0,1.0,98,0.00,,,0.00,0.0,meteohub,2013-09-24 09:57:00,
2013-09-24 06:02:00,40.5,39.7,30.13,South,186,0.0,1.0,97,0.00,,,0.00,0.0,meteohub,2013-09-24 10:02:00,
2013-09-24 06:07:00,40.3,39.6,30.13,South,186,0.0,0.0,97,0.00,,,0.00,0.0,meteohub,2013-09-24 10:07:00,
2013-09-24 06:12:00,39.9,39.2,30.13,South,186,0.0,0.0,97,0.00,,,0.00,0.0,meteohub,2013-09-24 10:12:00,
2013-09-24 06:17:00,39.9,39.4,30.13,South,186,0.0,0.0,98,0.00,,,0.00,0.0,meteohub,2013-09-24 10:17:00,
2013-09-24 06:22:00,39.9,39.4,30.13,South,186,0.0,0.0,98,0.00,,,0.00,0.0,meteohub,2013-09-24 10:22:00,
2013-09-24 06:27:00,39.7,39.2,30.13,South,186,0.0,0.0,98,0.00,,,0.00,0.0,meteohub,2013-09-24 10:27:00,
2013-09-24 06:32:00,39.7,39.0,30.13,South,186,0.0,1.0,97,0.00,,,0.00,0.0,meteohub,2013-09-24 10:32:00,
2013-09-24 06:37:00,39.6,38.8,30.13,South,186,0.0,1.0,97,0.00,,,0.00,0.0,meteohub,2013-09-24 10:37:00,
2013-09-24 06:42:00,39.2,38.5,30.13,South,186,0.0,1.0,97,0.00,,,0.00,0.0,meteohub,2013-09-24 10:42:00,
2013-09-24 06:47:00,39.0,38.3,30.13,South,186,0.0,1.0,97,0.00,,,0.00,0.0,meteohub,2013-09-24 10:47:00,
2013-09-24 06:52:00,39.0,38.3,30.13,South,186,0.0,1.0,97,0.00,,,0.00,0.0,meteohub,2013-09-24 10:52:00,
2013-09-24 06:57:00,39.0,38.5,30.13,South,186,0.0,1.0,98,0.00,,,0.00,0.0,meteohub,2013-09-24 10:57:00,
2013-09-24 07:02:00,38.8,38.3,30.14,South,186,1.0,2.0,98,0.00,,,0.00,0.0,meteohub,2013-09-24 11:02:00,
2013-09-24 07:07:00,38.7,38.1,30.14,South,186,0.0,2.0,98,0.00,,,0.00,0.0,meteohub,2013-09-24 11:07:00,
2013-09-24 07:12:00,38.7,37.9,30.14,South,186,0.0,2.0,97,0.00,,,0.00,0.0,meteohub,2013-09-24 11:12:00,
2013-09-24 07:17:00,38.5,37.8,30.14,South,186,0.0,1.0,97,0.00,,,0.00,0.0,meteohub,2013-09-24 11:17:00,
2013-09-24 07:22:00,38.3,37.8,30.14,South,186,0.0,1.0,98,0.00,,,0.00,0.0,meteohub,2013-09-24 11:22:00,
2013-09-24 07:27:00,38.1,37.6,30.14,South,186,0.0,0.0,98,0.00,,,0.00,0.0,meteohub,2013-09-24 11:27:00,
2013-09-24 07:32:00,38.1,37.6,30.14,South,186,0.0,0.0,98,0.00,,,0.00,5.0,meteohub,2013-09-24 11:32:00,
2013-09-24 07:37:00,38.1,37.6,30.14,South,186,0.0,1.0,98,0.00,,,0.00,11.0,meteohub,2013-09-24 11:37:00,
2013-09-24 07:42:00,38.3,37.8,30.14,South,186,0.0,1.0,98,0.00,,,0.00,14.0,meteohub,2013-09-24 11:42:00,
2013-09-24 07:47:00,38.3,37.8,30.14,South,186,0.0,0.0,98,0.00,,,0.00,18.0,meteohub,2013-09-24 11:47:00,
2013-09-24 07:52:00,38.5,37.9,30.14,South,186,0.0,1.0,98,0.00,,,0.00,21.0,meteohub,2013-09-24 11:52:00,
2013-09-24 07:57:00,38.7,38.1,30.14,South,186,0.0,1.0,98,0.00,,,0.00,26.0,meteohub,2013-09-24 11:57:00,
2013-09-24 08:02:00,38.8,38.3,30.14,South,186,0.0,1.0,98,0.00,,,0.00,30.0,meteohub,2013-09-24 12:02:00,
2013-09-24 08:07:00,39.0,38.5,30.14,South,186,0.0,0.0,98,0.01,,,0.01,33.0,meteohub,2013-09-24 12:07:00,
2013-09-24 08:12:00,39.4,38.8,30.14,South,186,0.0,1.0,98,0.01,,,0.01,37.0,meteohub,2013-09-24 12:12:00,
2013-09-24 08:17:00,39.6,39.0,30.14,South,186,0.0,1.0,98,0.01,,,0.01,39.0,meteohub,2013-09-24 12:17:00,
2013-09-24 08:22:00,40.1,39.6,30.14,South,186,0.0,1.0,98,0.01,,,0.01,42.0,meteohub,2013-09-24 12:22:00,
2013-09-24 08:27:00,40.6,40.5,30.14,South,186,0.0,2.0,99,0.01,,,0.01,47.0,meteohub,2013-09-24 12:27:00,
2013-09-24 08:32:00,41.2,41.0,30.14,South,186,0.0,2.0,99,0.01,,,0.01,156.0,meteohub,2013-09-24 12:32:00,
2013-09-24 08:37:00,42.8,42.6,30.14,South,186,1.0,2.0,99,0.01,,,0.01,171.0,meteohub,2013-09-24 12:37:00,
2013-09-24 08:42:00,43.7,43.5,30.14,South,186,0.0,1.0,99,0.01,,,0.01,186.0,meteohub,2013-09-24 12:42:00,
2013-09-24 08:47:00,44.6,44.4,30.14,South,186,0.0,1.0,99,0.01,,,0.01,193.0,meteohub,2013-09-24 12:47:00,
2013-09-24 08:52:00,45.3,45.1,30.14,South,182,1.0,1.0,99,0.01,,,0.01,202.0,meteohub,2013-09-24 12:52:00,
2013-09-24 08:57:00,46.0,45.9,30.14,SSE,147,0.0,2.0,99,0.01,,,0.01,223.0,meteohub,2013-09-24 12:57:00,
2013-09-24 09:02:00,46.6,46.4,30.14,SE,132,1.0,2.0,99,0.00,,,0.01,243.0,meteohub,2013-09-24 13:02:00,
2013-09-24 09:07:00,47.7,47.5,30.14,SSE,153,1.0,2.0,99,0.00,,,0.01,253.0,meteohub,2013-09-24 13:07:00,
2013-09-24 09:13:00,48.2,47.7,30.14,South,184,1.0,3.0,98,0.00,,,0.01,271.0,meteohub,2013-09-24 13:13:00,
2013-09-24 09:18:00,48.6,47.1,30.14,South,191,3.0,3.0,95,0.00,,,0.01,285.0,meteohub,2013-09-24 13:18:00,
2013-09-24 09:23:00,48.9,46.9,30.14,South,188,1.0,5.0,93,0.00,,,0.01,297.0,meteohub,2013-09-24 13:23:00,
2013-09-24 09:28:00,50.0,48.0,30.14,South,178,1.0,6.0,93,0.00,,,0.01,311.0,meteohub,2013-09-24 13:28:00,
2013-09-24 09:33:00,50.7,48.2,30.14,SSW,210,2.0,6.0,91,0.00,,,0.01,325.0,meteohub,2013-09-24 13:33:00,
2013-09-24 09:38:00,51.3,48.4,30.14,WSW,240,4.0,4.0,90,0.00,,,0.01,341.0,meteohub,2013-09-24 13:38:00,
2013-09-24 09:43:00,51.6,48.7,30.14,WSW,252,3.0,5.0,90,0.00,,,0.01,355.0,meteohub,2013-09-24 13:43:00,
2013-09-24 09:48:00,52.3,48.9,30.14,SE,129,1.0,5.0,88,0.00,,,0.01,371.0,meteohub,2013-09-24 13:48:00,
2013-09-24 09:53:00,52.2,48.0,30.14,SSW,209,2.0,5.0,86,0.00,,,0.01,381.0,meteohub,2013-09-24 13:53:00,
2013-09-24 09:58:00,52.3,48.2,30.14,SSW,209,1.0,4.0,86,0.00,,,0.01,387.0,meteohub,2013-09-24 13:58:00,
2013-09-24 10:03:00,53.1,48.9,30.14,South,178,5.0,5.0,86,0.00,,,0.01,417.0,meteohub,2013-09-24 14:03:00,
2013-09-24 10:08:00,53.2,49.1,30.14,SSE,163,1.0,5.0,86,0.00,,,0.01,432.0,meteohub,2013-09-24 14:08:00,
2013-09-24 10:13:00,54.1,49.8,30.14,SSW,212,4.0,5.0,85,0.00,,,0.01,454.0,meteohub,2013-09-24 14:13:00,
2013-09-24 10:18:00,54.7,50.0,30.14,SW,219,3.0,5.0,84,0.00,,,0.01,452.0,meteohub,2013-09-24 14:18:00,
2013-09-24 10:23:00,54.9,50.2,30.14,WSW,237,0.0,5.0,84,0.00,,,0.01,476.0,meteohub,2013-09-24 14:23:00,
2013-09-24 10:28:00,55.0,49.6,30.13,SW,231,5.0,5.0,82,0.00,,,0.01,446.0,meteohub,2013-09-24 14:28:00,
2013-09-24 10:33:00,54.9,49.1,30.13,SSW,205,5.0,6.0,81,0.00,,,0.01,459.0,meteohub,2013-09-24 14:33:00,
2013-09-24 10:38:00,54.9,49.5,30.13,SSW,211,3.0,6.0,82,0.00,,,0.01,522.0,meteohub,2013-09-24 14:38:00,
2013-09-24 10:43:00,55.9,50.2,30.13,SSW,209,5.0,6.0,81,0.00,,,0.01,485.0,meteohub,2013-09-24 14:43:00,
2013-09-24 10:48:00,55.4,48.7,30.13,South,186,3.0,8.0,78,0.00,,,0.01,533.0,meteohub,2013-09-24 14:48:00,
2013-09-24 10:53:00,55.4,48.9,30.13,SW,232,2.0,8.0,79,0.00,,,0.01,540.0,meteohub,2013-09-24 14:53:00,
2013-09-24 10:59:00,56.1,49.6,30.12,South,175,3.0,8.0,79,0.00,,,0.01,580.0,meteohub,2013-09-24 14:59:00,
2013-09-24 11:04:00,57.0,50.5,30.12,South,191,1.0,7.0,79,0.00,,,0.01,589.0,meteohub,2013-09-24 15:04:00,
2013-09-24 11:09:00,57.9,50.0,30.12,WNW,285,0.0,5.0,75,0.00,,,0.01,591.0,meteohub,2013-09-24 15:09:00,
2013-09-24 11:14:00,58.8,50.5,30.12,SW,220,3.0,5.0,74,0.00,,,0.01,606.0,meteohub,2013-09-24 15:14:00,
2013-09-24 11:19:00,57.7,48.7,30.12,SSE,165,1.0,4.0,72,0.00,,,0.01,615.0,meteohub,2013-09-24 15:19:00,
2013-09-24 11:24:00,58.5,49.8,30.12,SW,221,5.0,5.0,73,0.00,,,0.01,626.0,meteohub,2013-09-24 15:24:00,
2013-09-24 11:29:00,59.2,50.2,30.12,WSW,254,1.0,5.0,72,0.00,,,0.01,631.0,meteohub,2013-09-24 15:29:00,
2013-09-24 11:34:00,58.8,48.7,30.12,SW,226,4.0,7.0,69,0.00,,,0.01,642.0,meteohub,2013-09-24 15:34:00,
2013-09-24 11:39:00,59.4,49.1,30.12,SSE,156,0.0,7.0,69,0.00,,,0.01,652.0,meteohub,2013-09-24 15:39:00,
2013-09-24 11:44:00,60.1,50.7,30.12,SW,225,4.0,6.0,71,0.00,,,0.01,661.0,meteohub,2013-09-24 15:44:00,
2013-09-24 11:49:00,61.3,51.8,30.11,South,175,4.0,6.0,71,0.00,,,0.01,670.0,meteohub,2013-09-24 15:49:00,
2013-09-24 11:54:00,60.8,50.2,30.11,SW,234,1.0,6.0,68,0.00,,,0.01,682.0,meteohub,2013-09-24 15:54:00,
2013-09-24 11:59:00,61.3,49.8,30.11,SW,214,7.0,7.0,66,0.00,,,0.01,691.0,meteohub,2013-09-24 15:59:00,
2013-09-24 12:04:00,60.6,50.4,30.11,SW,222,3.0,6.0,69,0.00,,,0.01,696.0,meteohub,2013-09-24 16:04:00,
2013-09-24 12:09:00,60.3,50.0,30.11,WSW,248,4.0,7.0,69,0.00,,,0.01,694.0,meteohub,2013-09-24 16:09:00,
2013-09-24 12:14:00,61.2,49.3,30.10,East,84,1.0,7.0,65,0.00,,,0.01,698.0,meteohub,2013-09-24 16:14:00,
2013-09-24 12:20:00,62.2,51.1,30.10,SSE,163,0.0,6.0,67,0.00,,,0.01,726.0,meteohub,2013-09-24 16:20:00,
2013-09-24 12:25:00,61.9,49.6,30.10,SE,143,0.0,6.0,64,0.00,,,0.01,724.0,meteohub,2013-09-24 16:25:00,
2013-09-24 12:30:00,62.1,51.4,30.10,East,82,1.0,6.0,68,0.00,,,0.01,664.0,meteohub,2013-09-24 16:30:00,
2013-09-24 12:35:00,62.1,50.2,30.10,South,170,2.0,5.0,65,0.00,,,0.01,728.0,meteohub,2013-09-24 16:35:00,
2013-09-24 12:40:00,61.9,50.4,30.10,SE,139,4.0,5.0,66,0.00,,,0.01,729.0,meteohub,2013-09-24 16:40:00,
2013-09-24 12:45:00,61.3,49.8,30.09,ENE,71,1.0,6.0,66,0.00,,,0.01,729.0,meteohub,2013-09-24 16:45:00,
2013-09-24 12:50:00,61.9,49.6,30.09,ESE,114,0.0,6.0,64,0.00,,,0.01,729.0,meteohub,2013-09-24 16:50:00,
2013-09-24 12:55:00,62.1,49.3,30.09,NNE,28,0.0,6.0,63,0.00,,,0.01,729.0,meteohub,2013-09-24 16:55:00,
2013-09-24 13:00:00,62.2,50.0,30.09,NE,44,4.0,6.0,64,0.00,,,0.01,729.0,meteohub,2013-09-24 17:00:00,
2013-09-24 13:05:00,61.3,49.5,30.09,ENE,63,4.0,7.0,65,0.00,,,0.01,738.0,meteohub,2013-09-24 17:05:00,
2013-09-24 13:10:00,61.5,49.6,30.09,East,80,5.0,7.0,65,0.00,,,0.01,740.0,meteohub,2013-09-24 17:10:00,
2013-09-24 13:15:00,62.1,49.8,30.08,SSW,196,1.0,8.0,64,0.00,,,0.01,677.0,meteohub,2013-09-24 17:15:00,
2013-09-24 13:20:00,62.8,49.6,30.08,ENE,69,5.0,8.0,62,0.00,,,0.01,756.0,meteohub,2013-09-24 17:20:00,
2013-09-24 13:25:00,61.3,49.5,30.08,NE,51,1.0,8.0,65,0.00,,,0.01,691.0,meteohub,2013-09-24 17:25:00,
2013-09-24 13:30:00,63.0,49.8,30.08,East,98,1.0,8.0,62,0.00,,,0.01,752.0,meteohub,2013-09-24 17:30:00,
2013-09-24 13:35:00,64.0,51.6,30.07,East,85,2.0,8.0,64,0.00,,,0.01,742.0,meteohub,2013-09-24 17:35:00,
2013-09-24 13:40:00,63.9,50.5,30.07,SSW,209,4.0,6.0,62,0.00,,,0.01,744.0,meteohub,2013-09-24 17:40:00,
2013-09-24 13:45:00,63.3,49.3,30.07,NNW,348,1.0,8.0,60,0.00,,,0.01,745.0,meteohub,2013-09-24 17:45:00,
2013-09-24 13:50:00,63.0,50.2,30.06,ENE,61,4.0,8.0,63,0.00,,,0.01,738.0,meteohub,2013-09-24 17:50:00,
2013-09-24 13:55:00,62.8,49.6,30.06,ENE,69,3.0,8.0,62,0.00,,,0.01,744.0,meteohub,2013-09-24 17:55:00,
2013-09-24 14:00:00,62.8,49.6,30.06,ESE,121,4.0,8.0,62,0.00,,,0.01,728.0,meteohub,2013-09-24 18:00:00,
2013-09-24 14:05:00,63.9,49.6,30.06,SW,215,3.0,7.0,60,0.00,,,0.01,728.0,meteohub,2013-09-24 18:05:00,
2013-09-24 14:10:00,63.7,50.4,30.06,WSW,238,0.0,6.0,62,0.00,,,0.01,721.0,meteohub,2013-09-24 18:10:00,
2013-09-24 14:16:00,63.1,49.1,30.06,NNE,25,3.0,8.0,60,0.00,,,0.01,717.0,meteohub,2013-09-24 18:16:00,
2013-09-24 14:21:00,63.9,50.2,30.06,ESE,117,2.0,8.0,61,0.00,,,0.01,710.0,meteohub,2013-09-24 18:21:00,
2013-09-24 14:26:00,64.9,48.4,30.06,ENE,61,4.0,8.0,55,0.00,,,0.01,714.0,meteohub,2013-09-24 18:26:00,
2013-09-24 14:31:00,63.9,48.7,30.05,NNE,26,2.0,8.0,58,0.00,,,0.01,708.0,meteohub,2013-09-24 18:31:00,
2013-09-24 14:36:00,64.6,50.0,30.05,East,89,5.0,8.0,59,0.00,,,0.01,705.0,meteohub,2013-09-24 18:36:00,
2013-09-24 14:41:00,64.9,49.3,30.05,NE,56,4.0,8.0,57,0.00,,,0.01,698.0,meteohub,2013-09-24 18:41:00,
2013-09-24 14:46:00,64.4,49.3,30.05,North,5,2.0,8.0,58,0.00,,,0.01,689.0,meteohub,2013-09-24 18:46:00,
2013-09-24 14:51:00,64.6,48.6,30.05,NNE,29,5.0,7.0,56,0.00,,,0.01,684.0,meteohub,2013-09-24 18:51:00,
2013-09-24 14:56:00,64.0,48.6,30.04,East,82,6.0,7.0,57,0.00,,,0.01,679.0,meteohub,2013-09-24 18:56:00,
2013-09-24 15:01:00,65.8,49.3,30.04,ESE,117,2.0,9.0,55,0.00,,,0.01,670.0,meteohub,2013-09-24 19:01:00,
2013-09-24 15:06:00,66.0,49.5,30.04,SW,225,1.0,9.0,55,0.00,,,0.01,664.0,meteohub,2013-09-24 19:06:00,
2013-09-24 15:11:00,67.3,52.0,30.04,WSW,237,2.0,7.0,58,0.00,,,0.01,657.0,meteohub,2013-09-24 19:11:00,
2013-09-24 15:16:00,65.1,50.9,30.04,ENE,69,1.0,4.0,60,0.00,,,0.01,649.0,meteohub,2013-09-24 19:16:00,
2013-09-24 15:21:00,63.7,50.9,30.04,ENE,67,2.0,8.0,63,0.00,,,0.01,638.0,meteohub,2013-09-24 19:21:00,
2013-09-24 15:26:00,63.5,52.0,30.04,East,86,3.0,8.0,66,0.00,,,0.01,629.0,meteohub,2013-09-24 19:26:00,
2013-09-24 15:31:00,64.0,52.9,30.03,NNE,29,1.0,9.0,67,0.00,,,0.01,621.0,meteohub,2013-09-24 19:31:00,
2013-09-24 15:36:00,64.0,52.0,30.03,NNE,24,2.0,9.0,65,0.00,,,0.01,610.0,meteohub,2013-09-24 19:36:00,
2013-09-24 15:41:00,64.2,52.7,30.03,NW,306,1.0,10.0,66,0.00,,,0.01,598.0,meteohub,2013-09-24 19:41:00,
2013-09-24 15:46:00,64.0,52.9,30.03,North,11,3.0,10.0,67,0.00,,,0.01,589.0,meteohub,2013-09-24 19:46:00,
2013-09-24 15:51:00,63.3,52.2,30.03,NE,34,3.0,8.0,67,0.00,,,0.01,580.0,meteohub,2013-09-24 19:51:00,
2013-09-24 15:56:00,63.3,53.4,30.03,NNW,330,2.0,8.0,70,0.00,,,0.01,570.0,meteohub,2013-09-24 19:56:00,
2013-09-24 16:01:00,63.5,52.7,30.03,East,94,6.0,8.0,68,0.00,,,0.01,559.0,meteohub,2013-09-24 20:01:00,
2013-09-24 16:06:00,62.8,52.5,30.03,NW,305,1.0,8.0,69,0.00,,,0.01,548.0,meteohub,2013-09-24 20:06:00,
2013-09-24 16:11:00,62.8,52.9,30.02,WSW,243,2.0,8.0,70,0.00,,,0.01,540.0,meteohub,2013-09-24 20:11:00,
2013-09-24 16:16:00,62.6,52.3,30.02,ESE,109,1.0,8.0,69,0.00,,,0.01,526.0,meteohub,2013-09-24 20:16:00,
2013-09-24 16:22:00,63.0,52.2,30.03,East,80,5.0,7.0,68,0.00,,,0.01,515.0,meteohub,2013-09-24 20:22:00,
2013-09-24 16:27:00,63.0,52.2,30.02,ENE,58,0.0,8.0,68,0.00,,,0.01,504.0,meteohub,2013-09-24 20:27:00,
2013-09-24 16:32:00,63.0,51.8,30.02,ENE,63,4.0,10.0,67,0.00,,,0.01,492.0,meteohub,2013-09-24 20:32:00,
2013-09-24 16:37:00,62.4,51.8,30.02,NNE,24,1.0,10.0,68,0.00,,,0.01,482.0,meteohub,2013-09-24 20:37:00,
2013-09-24 16:42:00,62.6,51.1,30.02,NE,54,3.0,10.0,66,0.00,,,0.01,469.0,meteohub,2013-09-24 20:42:00,
2013-09-24 16:47:00,62.1,51.4,30.02,ENE,76,5.0,9.0,68,0.00,,,0.01,455.0,meteohub,2013-09-24 20:47:00,
2013-09-24 16:52:00,62.1,52.2,30.02,NNE,33,2.0,9.0,70,0.00,,,0.01,443.0,meteohub,2013-09-24 20:52:00,
2013-09-24 16:57:00,61.7,51.8,30.02,East,81,7.0,9.0,70,0.00,,,0.01,429.0,meteohub,2013-09-24 20:57:00,
2013-09-24 17:02:00,61.5,51.3,30.02,East,92,5.0,9.0,69,0.00,,,0.01,403.0,meteohub,2013-09-24 21:02:00,
2013-09-24 17:07:00,61.2,51.6,30.02,East,86,3.0,11.0,71,0.00,,,0.01,62.0,meteohub,2013-09-24 21:07:00,
2013-09-24 17:12:00,61.0,51.4,30.02,ENE,75,2.0,11.0,71,0.00,,,0.01,39.0,meteohub,2013-09-24 21:12:00,
2013-09-24 17:17:00,61.0,52.0,30.02,ENE,63,5.0,11.0,72,0.00,,,0.01,30.0,meteohub,2013-09-24 21:17:00,
2013-09-24 17:22:00,60.4,51.1,30.02,NE,50,5.0,10.0,71,0.00,,,0.01,30.0,meteohub,2013-09-24 21:22:00,
2013-09-24 17:27:00,60.4,51.4,30.02,ENE,78,9.0,10.0,72,0.00,,,0.01,30.0,meteohub,2013-09-24 21:27:00,
2013-09-24 17:32:00,60.3,51.3,30.02,East,88,5.0,12.0,72,0.00,,,0.01,30.0,meteohub,2013-09-24 21:32:00,
2013-09-24 17:37:00,60.3,51.6,30.02,ENE,68,3.0,12.0,73,0.00,,,0.01,32.0,meteohub,2013-09-24 21:37:00,
2013-09-24 17:42:00,60.3,52.0,30.02,ENE,76,2.0,10.0,74,0.00,,,0.01,28.0,meteohub,2013-09-24 21:42:00,
2013-09-24 17:47:00,60.3,51.6,30.02,ESE,103,3.0,10.0,73,0.00,,,0.01,26.0,meteohub,2013-09-24 21:47:00,
2013-09-24 17:52:00,60.1,51.4,30.02,NE,55,3.0,10.0,73,0.00,,,0.01,26.0,meteohub,2013-09-24 21:52:00,
2013-09-24 17:57:00,59.9,51.6,30.02,ENE,59,2.0,10.0,74,0.00,,,0.01,25.0,meteohub,2013-09-24 21:57:00,
2013-09-24 18:02:00,59.7,51.1,30.02,ENE,75,3.0,9.0,73,0.00,,,0.01,25.0,meteohub,2013-09-24 22:02:00,
2013-09-24 18:07:00,59.5,51.3,30.02,ENE,65,4.0,9.0,74,0.00,,,0.01,25.0,meteohub,2013-09-24 22:07:00,
2013-09-24 18:12:00,59.5,51.6,30.02,East,82,6.0,9.0,75,0.00,,,0.01,23.0,meteohub,2013-09-24 22:12:00,
2013-09-24 18:17:00,59.2,51.3,30.02,NNE,33,3.0,9.0,75,0.00,,,0.01,23.0,meteohub,2013-09-24 22:17:00,
2013-09-24 18:22:00,58.8,51.3,30.02,NE,49,3.0,11.0,76,0.00,,,0.01,21.0,meteohub,2013-09-24 22:22:00,
2013-09-24 18:27:00,58.6,51.4,30.02,ENE,70,3.0,11.0,77,0.00,,,0.01,21.0,meteohub,2013-09-24 22:27:00,
2013-09-24 18:32:00,58.5,51.3,30.02,ENE,57,2.0,11.0,77,0.00,,,0.01,19.0,meteohub,2013-09-24 22:32:00,
2013-09-24 18:37:00,58.3,51.1,30.02,ENE,70,4.0,7.0,77,0.00,,,0.01,19.0,meteohub,2013-09-24 22:37:00,
2013-09-24 18:42:00,57.9,51.1,30.02,ENE,67,3.0,8.0,78,0.00,,,0.01,18.0,meteohub,2013-09-24 22:42:00,
2013-09-24 18:47:00,57.7,50.9,30.02,NE,37,2.0,8.0,78,0.00,,,0.01,16.0,meteohub,2013-09-24 22:47:00,
2013-09-24 18:52:00,57.4,50.9,30.02,NE,55,1.0,8.0,79,0.00,,,0.01,14.0,meteohub,2013-09-24 22:52:00,
2013-09-24 19:02:00,56.8,50.7,30.02,ENE,68,4.0,7.0,80,0.00,,,0.01,12.0,meteohub,2013-09-24 23:02:00,
2013-09-24 19:07:00,56.5,50.4,30.02,ENE,62,4.0,10.0,80,0.00,,,0.01,11.0,meteohub,2013-09-24 23:07:00,
2013-09-24 19:12:00,56.1,50.4,30.02,NE,38,3.0,10.0,81,0.00,,,0.01,9.0,meteohub,2013-09-24 23:12:00,
2013-09-24 19:17:00,55.9,50.5,30.01,ENE,68,3.0,10.0,82,0.00,,,0.01,7.0,meteohub,2013-09-24 23:17:00,
2013-09-24 19:22:00,55.6,50.2,30.01,ENE,59,2.0,8.0,82,0.00,,,0.01,5.0,meteohub,2013-09-24 23:22:00,
2013-09-24 19:27:00,55.0,50.0,30.02,NNE,32,2.0,8.0,83,0.00,,,0.01,0.0,meteohub,2013-09-24 23:27:00,
2013-09-24 19:32:00,54.7,50.0,30.01,NE,42,3.0,4.0,84,0.00,,,0.01,0.0,meteohub,2013-09-24 23:32:00,
2013-09-24 19:37:00,54.3,49.6,30.01,ENE,64,1.0,4.0,84,0.00,,,0.01,0.0,meteohub,2013-09-24 23:37:00,
2013-09-24 19:42:00,54.0,49.6,30.01,ENE,61,5.0,5.0,85,0.00,,,0.01,0.0,meteohub,2013-09-24 23:42:00,
2013-09-24 19:47:00,54.0,49.6,30.01,East,84,2.0,9.0,85,0.00,,,0.01,0.0,meteohub,2013-09-24 23:47:00,
2013-09-24 19:52:00,53.6,49.5,30.01,NE,45,2.0,9.0,86,0.00,,,0.01,0.0,meteohub,2013-09-24 23:52:00,
2013-09-24 19:57:00,53.2,49.1,30.01,NE,49,2.0,9.0,86,0.00,,,0.01,0.0,meteohub,2013-09-24 23:57:00,
2013-09-24 20:02:00,53.1,49.3,30.01,ENE,67,3.0,6.0,87,0.00,,,0.01,0.0,meteohub,2013-09-25 00:02:00,
2013-09-24 20:07:00,52.9,49.1,30.01,ENE,65,2.0,6.0,87,0.00,,,0.00,0.0,meteohub,2013-09-25 00:07:00,
2013-09-24 20:12:00,52.9,49.5,30.01,NE,36,2.0,6.0,88,0.00,,,0.00,0.0,meteohub,2013-09-25 00:12:00,
2013-09-24 20:17:00,52.7,49.3,30.01,ENE,64,2.0,6.0,88,0.00,,,0.00,0.0,meteohub,2013-09-25 00:17:00,
2013-09-24 20:22:00,52.5,49.1,30.01,ENE,57,2.0,6.0,88,0.00,,,0.00,0.0,meteohub,2013-09-25 00:22:00,
2013-09-24 20:27:00,52.3,48.9,30.01,NE,41,2.0,6.0,88,0.00,,,0.00,0.0,meteohub,2013-09-25 00:27:00,
2013-09-24 20:32:00,52.2,48.7,30.01,NE,46,3.0,5.0,88,0.00,,,0.00,0.0,meteohub,2013-09-25 00:32:00,
2013-09-24 20:37:00,52.0,48.6,30.01,NE,56,2.0,5.0,88,0.00,,,0.00,0.0,meteohub,2013-09-25 00:37:00,
2013-09-24 20:43:00,51.8,48.4,30.01,North,5,2.0,4.0,88,0.00,,,0.00,0.0,meteohub,2013-09-25 00:43:00,
2013-09-24 20:48:00,51.6,48.2,30.01,NE,55,0.0,4.0,88,0.00,,,0.00,0.0,meteohub,2013-09-25 00:48:00,
2013-09-24 20:53:00,51.6,48.2,30.01,East,89,2.0,3.0,88,0.00,,,0.00,0.0,meteohub,2013-09-25 00:53:00,
2013-09-24 20:58:00,51.4,48.0,30.01,ENE,67,0.0,2.0,88,0.00,,,0.00,0.0,meteohub,2013-09-25 00:58:00,
2013-09-24 21:03:00,51.4,48.0,30.01,ENE,77,0.0,2.0,88,0.00,,,0.00,0.0,meteohub,2013-09-25 01:03:00,
2013-09-24 21:08:00,51.3,47.8,30.01,ENE,77,1.0,3.0,88,0.00,,,0.00,0.0,meteohub,2013-09-25 01:08:00,
2013-09-24 21:13:00,51.1,48.0,30.01,ENE,58,0.0,3.0,89,0.00,,,0.00,0.0,meteohub,2013-09-25 01:13:00,
2013-09-24 21:18:00,50.7,47.8,30.01,NE,53,0.0,3.0,90,0.00,,,0.00,0.0,meteohub,2013-09-25 01:18:00,
2013-09-24 21:23:00,50.4,47.5,30.01,NE,53,1.0,2.0,90,0.00,,,0.00,0.0,meteohub,2013-09-25 01:23:00,
2013-09-24 21:28:00,50.0,47.5,30.01,NE,48,0.0,1.0,91,0.00,,,0.00,0.0,meteohub,2013-09-25 01:28:00,
2013-09-24 21:33:00,49.8,47.3,30.01,NE,47,0.0,1.0,91,0.00,,,0.00,0.0,meteohub,2013-09-25 01:33:00,
2013-09-24 21:38:00,49.6,47.1,30.01,NE,47,0.0,1.0,91,0.00,,,0.00,0.0,meteohub,2013-09-25 01:38:00,
2013-09-24 21:43:00,49.6,47.1,30.01,SSE,148,0.0,1.0,91,0.00,,,0.00,0.0,meteohub,2013-09-25 01:43:00,
2013-09-24 21:48:00,49.5,46.9,30.01,SE,139,1.0,2.0,91,0.00,,,0.00,0.0,meteohub,2013-09-25 01:48:00,
2013-09-24 21:53:00,49.5,46.9,30.01,SE,139,1.0,2.0,91,0.00,,,0.00,0.0,meteohub,2013-09-25 01:53:00,
2013-09-24 21:58:00,49.3,46.8,30.01,SE,139,0.0,2.0,91,0.00,,,0.00,0.0,meteohub,2013-09-25 01:58:00,
2013-09-24 22:03:00,48.9,46.4,30.01,SE,139,0.0,2.0,91,0.00,,,0.00,0.0,meteohub,2013-09-25 02:03:00,
2013-09-24 22:08:00,48.6,46.0,30.01,SE,139,0.0,1.0,91,0.00,,,0.00,0.0,meteohub,2013-09-25 02:08:00,
2013-09-24 22:13:00,48.4,46.2,30.01,SE,139,0.0,1.0,92,0.00,,,0.00,0.0,meteohub,2013-09-25 02:13:00,
2013-09-24 22:18:00,48.0,45.9,30.01,SE,139,0.0,1.0,92,0.00,,,0.00,0.0,meteohub,2013-09-25 02:18:00,
2013-09-24 22:23:00,47.8,45.7,30.01,SE,139,0.0,1.0,92,0.00,,,0.00,0.0,meteohub,2013-09-25 02:23:00,
2013-09-24 22:28:00,47.8,45.9,30.00,SE,139,0.0,1.0,93,0.00,,,0.00,0.0,meteohub,2013-09-25 02:28:00,
2013-09-24 22:33:00,47.8,46.2,30.00,SE,139,0.0,1.0,94,0.00,,,0.00,0.0,meteohub,2013-09-25 02:33:00,
2013-09-24 22:38:00,47.8,46.2,30.00,SE,139,0.0,1.0,94,0.00,,,0.00,0.0,meteohub,2013-09-25 02:38:00,
2013-09-24 22:43:00,47.7,45.7,30.00,SE,139,0.0,1.0,93,0.00,,,0.00,0.0,meteohub,2013-09-25 02:43:00,
2013-09-24 22:48:00,47.3,45.1,30.00,SE,139,0.0,1.0,92,0.00,,,0.00,0.0,meteohub,2013-09-25 02:48:00,
2013-09-24 22:53:00,46.9,45.0,30.00,SE,139,0.0,1.0,93,0.00,,,0.00,0.0,meteohub,2013-09-25 02:53:00,
2013-09-24 22:58:00,46.8,44.8,30.00,SE,139,0.0,1.0,93,0.00,,,0.00,0.0,meteohub,2013-09-25 02:58:00,
2013-09-24 23:03:00,46.4,44.4,30.00,SE,139,0.0,1.0,93,0.00,,,0.00,0.0,meteohub,2013-09-25 03:03:00,
2013-09-24 23:08:00,46.0,44.4,30.00,SE,139,0.0,1.0,94,0.00,,,0.00,0.0,meteohub,2013-09-25 03:08:00,
2013-09-24 23:13:00,45.9,44.2,30.00,SE,139,0.0,1.0,94,0.00,,,0.00,0.0,meteohub,2013-09-25 03:13:00,
2013-09-24 23:18:00,45.7,44.1,30.00,SE,139,0.0,0.0,94,0.00,,,0.00,0.0,meteohub,2013-09-25 03:18:00,
2013-09-24 23:23:00,45.3,43.7,30.00,SE,139,0.0,0.0,94,0.00,,,0.00,0.0,meteohub,2013-09-25 03:23:00,
2013-09-24 23:28:00,45.1,43.9,30.00,SE,139,0.0,1.0,95,0.00,,,0.00,0.0,meteohub,2013-09-25 03:28:00,
2013-09-24 23:34:00,45.0,43.7,30.00,SE,139,0.0,1.0,95,0.00,,,0.00,0.0,meteohub,2013-09-25 03:34:00,
2013-09-24 23:39:00,45.0,43.7,30.00,SE,139,0.0,0.0,95,0.00,,,0.00,0.0,meteohub,2013-09-25 03:39:00,
2013-09-24 23:44:00,45.0,43.9,30.00,SE,139,0.0,0.0,96,0.00,,,0.00,0.0,meteohub,2013-09-25 03:44:00,
2013-09-24 23:49:00,44.8,43.7,30.00,SE,139,0.0,0.0,96,0.00,,,0.00,0.0,meteohub,2013-09-25 03:49:00,
2013-09-24 23:54:00,44.8,43.7,30.00,SE,139,0.0,0.0,96,0.00,,,0.00,0.0,meteohub,2013-09-25 03:54:00,
2013-09-24 23:59:00,44.8,43.7,30.00,SE,139,0.0,0.0,96,0.00,,,0.00,0.0,meteohub,2013-09-25 03:59:00,